GW2783 Weather Reports


time (UTC)temp
C
wind
direction
speed
KPH
gust
KPH
rain 1hr
cm
rain 24hr
cm
rain mn
cm
humidity
%
barometer
mb
20260503032511 2 0 0.0 0.0 0.00 0.00 0.00 78 1017.8
20260503032009 2 0 0.0 0.0 0.00 0.00 0.00 77 1017.8
20260503031532 3 0 0.0 0.0 0.00 0.00 0.00 77 1017.9
20260503031011 3 0 0.0 0.0 0.00 0.00 0.00 76 1017.9
20260503030509 3 0 0.0 0.0 0.00 0.00 0.00 76 1018.0
20260503030034 3 0 0.0 0.0 0.00 0.00 0.00 74 1018.0
20260503025511 3 0 0.0 0.0 0.00 0.00 0.00 73 1018.0
20260503025012 3 0 0.0 0.0 0.00 0.00 0.00 72 1018.1
20260503024535 3 0 0.0 0.0 0.00 0.00 0.00 72 1018.1
20260503024011 4 0 0.0 0.0 0.00 0.00 0.00 71 1018.1
20260503023511 4 0 0.0 0.0 0.00 0.00 0.00 70 1018.1
20260503023030 4 0 0.0 0.0 0.00 0.00 0.00 69 1018.1
20260503022511 5 0 0.0 0.0 0.00 0.00 0.00 68 1018.0
20260503022009 5 0 0.0 0.0 0.00 0.00 0.00 66 1018.0
20260503021532 5 0 0.0 0.0 0.00 0.00 0.00 65 1018.0
20260503021008 5 0 0.0 0.0 0.00 0.00 0.00 64 1018.0
20260503020511 6 0 0.0 0.0 0.00 0.00 0.00 63 1017.9
20260503020030 6 0 0.0 0.0 0.00 0.00 0.00 62 1017.9
20260503015511 6 0 0.0 0.0 0.00 0.13 0.00 61 1017.8
20260503015012 6 0 0.0 1.6 0.00 0.13 0.00 60 1017.9
20260503014528 6 0 0.0 1.6 0.00 0.13 0.00 59 1017.8
20260503014008 6 293 0.0 1.6 0.00 0.13 0.00 57 1017.8
20260503013511 6 292 0.0 1.6 0.00 0.13 0.00 57 1017.7
20260503013035 6 273 0.0 1.6 0.00 0.13 0.00 57 1017.7
20260503012512 6 0 0.0 1.6 0.00 0.13 0.00 56 1017.7
20260503012011 6 268 0.0 1.6 0.00 0.13 0.00 56 1017.6
20260503011530 7 0 0.0 3.2 0.00 0.13 0.00 55 1017.6
20260503011012 7 304 0.0 3.2 0.00 0.13 0.00 55 1017.6
20260503010511 7 243 0.0 1.6 0.00 0.13 0.00 55 1017.5
20260503010032 7 0 0.0 3.2 0.00 0.13 0.00 55 1017.5
20260503005511 7 0 0.0 3.2 0.00 0.13 0.00 55 1017.5
20260503005012 7 0 0.0 3.2 0.00 0.13 0.00 54 1017.5
20260503004533 7 331 0.0 3.2 0.00 0.13 0.00 53 1017.4
20260503004010 7 332 1.6 6.4 0.00 0.13 0.00 53 1017.4
20260503003510 7 299 0.0 6.4 0.00 0.13 0.00 53 1017.4
20260503003038 7 273 1.6 8.0 0.00 0.13 0.00 52 1017.4
20260503002511 7 238 1.6 8.0 0.00 0.13 0.00 52 1017.3
20260503002010 7 319 3.2 8.0 0.00 0.13 0.00 51 1017.5
20260503001530 7 278 1.6 6.4 0.00 0.13 0.00 50 1017.4
20260503001012 7 0 0.0 6.4 0.00 0.13 0.00 50 1017.3
20260503000514 7 0 0.0 8.0 0.00 0.13 0.00 50 1017.3
20260503000028 7 266 3.2 9.7 0.00 0.13 0.00 49 1017.3
20260502235511 7 290 4.8 9.7 0.00 0.13 0.00 48 1017.3
20260502235011 7 300 3.2 11.3 0.00 0.13 0.00 48 1017.3
20260502234533 7 250 1.6 11.3 0.00 0.13 0.00 49 1017.3
20260502234011 7 12 4.8 11.3 0.00 0.13 0.00 47 1017.3
20260502233511 7 296 3.2 11.3 0.00 0.13 0.00 47 1017.2
20260502233027 7 275 6.4 11.3 0.00 0.13 0.00 47 1017.3
20260502232511 7 332 3.2 9.7 0.00 0.13 0.00 47 1017.2
20260502232013 7 264 1.6 9.7 0.00 0.13 0.00 48 1017.3
20260502231530 7 311 3.2 9.7 0.00 0.13 0.00 48 1017.3
20260502231012 7 360 3.2 9.7 0.00 0.13 0.00 47 1017.3
20260502230510 7 313 4.8 9.7 0.00 0.13 0.00 47 1017.3
20260502230027 8 326 3.2 9.7 0.00 0.13 0.00 48 1017.2
20260502225508 8 352 1.6 9.7 0.00 0.13 0.00 47 1017.2
20260502225011 8 314 3.2 9.7 0.00 0.13 0.00 47 1017.2
20260502224527 8 288 3.2 9.7 0.00 0.13 0.00 47 1017.1
20260502224011 8 303 3.2 11.3 0.00 0.13 0.00 48 1017.1
20260502223512 8 256 3.2 11.3 0.00 0.13 0.00 48 1017.1
20260502223030 8 315 4.8 11.3 0.00 0.13 0.00 47 1017.2
20260502222512 8 310 3.2 9.7 0.00 0.13 0.00 48 1017.2
20260502222012 8 265 3.2 9.7 0.00 0.13 0.00 50 1017.2
20260502221530 8 47 1.6 9.7 0.00 0.13 0.00 50 1017.2
20260502221013 8 315 3.2 11.3 0.00 0.13 0.00 50 1017.2
20260502220514 8 281 3.2 11.3 0.00 0.13 0.00 49 1017.2
20260502220031 8 51 1.6 9.7 0.00 0.13 0.00 50 1017.1
20260502215513 8 53 1.6 9.7 0.00 0.13 0.00 51 1017.1
20260502215009 8 322 1.6 14.5 0.00 0.13 0.00 50 1017.1
20260502214529 8 348 3.2 14.5 0.00 0.13 0.00 50 1017.0
20260502214013 8 3 3.2 11.3 0.00 0.13 0.00 49 1016.9
20260502213511 8 276 4.8 16.1 0.00 0.13 0.00 45 1016.9
20260502213038 8 296 3.2 16.1 0.00 0.13 0.00 43 1016.8
20260502212511 8 283 4.8 16.1 0.00 0.13 0.00 43 1016.7
20260502212009 8 356 4.8 16.1 0.00 0.13 0.00 43 1016.7
20260502211531 8 314 6.4 16.1 0.00 0.13 0.00 42 1016.6
20260502211008 8 295 4.8 12.9 0.00 0.13 0.00 45 1016.7
20260502210512 8 254 6.4 12.9 0.00 0.13 0.00 44 1016.7
20260502210028 8 30 1.6 12.9 0.00 0.13 0.00 44 1016.6
20260502205511 8 327 4.8 17.7 0.00 0.13 0.00 45 1016.7
20260502205011 8 288 4.8 17.7 0.00 0.13 0.00 44 1016.6
20260502204527 9 295 6.4 17.7 0.00 0.13 0.00 45 1016.7
20260502204014 9 251 8.0 14.5 0.00 0.13 0.00 44 1016.7
20260502203509 9 75 4.8 17.7 0.00 0.13 0.00 44 1016.7
20260502203030 9 94 4.8 17.7 0.00 0.13 0.00 44 1016.7
20260502202514 9 315 4.8 16.1 0.00 0.13 0.00 46 1016.7
20260502202011 8 271 4.8 12.9 0.00 0.13 0.00 46 1016.7
20260502201536 9 345 4.8 16.1 0.00 0.13 0.00 45 1016.8
20260502201010 9 356 4.8 16.1 0.00 0.13 0.00 45 1016.8
20260502200516 9 352 3.2 12.9 0.00 0.13 0.00 43 1016.7
20260502200031 9 266 6.4 12.9 0.00 0.13 0.00 43 1016.8
20260502195510 9 303 4.8 12.9 0.00 0.13 0.00 43 1016.8
20260502195011 9 322 3.2 16.1 0.00 0.13 0.00 43 1016.8
20260502194529 9 257 6.4 19.3 0.00 0.13 0.00 43 1016.8
20260502194008 9 240 9.7 19.3 0.00 0.13 0.00 43 1017.0
20260502193551 9 285 6.4 16.1 0.00 0.13 0.00 44 1016.9
20260502193030 9 352 3.2 14.5 0.00 0.13 0.00 44 1016.9
20260502192518 9 231 4.8 17.7 0.00 0.13 0.00 45 1017.1
20260502192009 9 283 4.8 17.7 0.00 0.13 0.00 46 1017.1
20260502191534 9 283 6.4 17.7 0.00 0.13 0.00 45 1017.1
20260502191012 10 275 6.4 16.1 0.00 0.13 0.00 44 1017.2
20260502190512 9 281 3.2 16.1 0.00 0.13 0.00 45 1017.2
20260502190029 9 319 6.4 16.1 0.00 0.13 0.00 44 1017.3
20260502185511 9 104 4.8 20.9 0.00 0.13 0.00 46 1017.4
20260502185011 9 244 8.0 20.9 0.00 0.13 0.00 46 1017.4
20260502184536 9 167 4.8 14.5 0.00 0.13 0.00 44 1017.3
20260502184011 9 294 1.6 11.3 0.00 0.13 0.00 44 1017.3
20260502183513 9 0 4.8 14.5 0.00 0.13 0.00 43 1017.2
20260502183030 9 0 3.2 14.5 0.00 0.13 0.00 45 1017.2
20260502182508 9 299 6.4 14.5 0.00 0.13 0.00 46 1017.3
20260502182010 8 278 4.8 11.3 0.00 0.13 0.00 45 1017.3
20260502181527 8 271 3.2 11.3 0.00 0.13 0.00 48 1017.3
20260502181012 8 248 3.2 17.7 0.00 0.13 0.00 49 1017.4
20260502180510 8 323 3.2 17.7 0.00 0.13 0.00 49 1017.5
20260502170516 8 99 4.8 14.5 0.00 0.13 0.00 47 1017.3
20260502164010 8 297 4.8 17.7 0.00 0.15 0.00 51 1017.5
20260502163509 8 322 6.4 17.7 0.00 0.15 0.00 48 1017.5
20260502163028 8 285 8.0 19.3 0.00 0.15 0.00 48 1017.6
20260502162513 8 264 8.0 19.3 0.00 0.15 0.00 45 1017.7
20260502162009 8 323 3.2 14.5 0.00 0.15 0.00 47 1017.7
20260502161532 8 285 3.2 14.5 0.00 0.15 0.00 51 1017.7
20260502161012 7 247 3.2 20.9 0.00 0.15 0.00 50 1017.8
20260502160513 7 296 4.8 20.9 0.00 0.15 0.00 51 1017.8
20260502152014 7 313 6.4 12.9 0.00 0.28 0.00 54 1017.8
20260502151528 7 303 4.8 12.9 0.00 0.28 0.00 55 1017.7
20260502151008 7 308 4.8 14.5 0.00 0.28 0.00 56 1017.7
20260502150511 7 288 6.4 14.5 0.00 0.28 0.00 55 1017.8
20260502130509 4 301 3.2 11.3 0.00 0.41 0.00 74 1017.7
20260502123510 3 0 0.0 1.6 0.00 0.46 0.00 78 1017.6
20260502123028 3 0 0.0 4.8 0.00 0.46 0.00 78 1017.6
20260502122512 3 0 0.0 6.4 0.00 0.46 0.00 79 1017.5
20260502122014 3 291 1.6 6.4 0.00 0.46 0.00 80 1017.5
20260502121533 2 304 1.6 6.4 0.00 0.46 0.00 81 1017.4
20260502121010 2 290 1.6 6.4 0.00 0.46 0.00 81 1017.5
20260502120513 2 301 1.6 8.0 0.00 0.46 0.00 82 1017.4
20260502115515 2 271 4.8 8.0 0.00 0.46 0.00 83 1017.2
20260502115011 2 289 3.2 6.4 0.00 0.46 0.00 85 1017.2
20260502114531 2 336 0.0 6.4 0.00 0.46 0.00 87 1017.2
20260502114012 2 278 1.6 6.4 0.00 0.46 0.00 88 1017.2
20260502113511 2 281 1.6 4.8 0.00 0.46 0.00 88 1017.2
20260502113030 1 308 1.6 4.8 0.00 0.46 0.00 89 1017.1
20260502112511 1 291 0.0 3.2 0.00 0.46 0.00 89 1017.2
20260502112010 1 245 0.0 3.2 0.00 0.46 0.00 90 1017.3
20260502111527 1 278 0.0 3.2 0.00 0.46 0.00 90 1017.2
20260502111009 1 0 0.0 1.6 0.00 0.46 0.00 91 1017.2
20260502110511 1 0 0.0 1.6 0.00 0.46 0.00 91 1017.2
20260502110032 1 0 0.0 1.6 0.00 0.46 0.00 91 1017.1
20260502105512 1 0 0.0 3.2 0.00 0.46 0.00 92 1017.2
20260502105011 0 276 0.0 4.8 0.00 0.46 0.00 92 1017.2
20260502104533 0 0 0.0 4.8 0.00 0.46 0.00 93 1017.0
20260502104009 0 314 0.0 4.8 0.00 0.46 0.00 93 1017.0
20260502103510 0 276 0.0 3.2 0.00 0.46 0.00 93 1017.0
20260502103027 0 285 0.0 3.2 0.00 0.46 0.00 93 1017.2
20260502102515 0 297 0.0 3.2 0.00 0.46 0.00 94 1017.1
20260502102012 0 273 0.0 3.2 0.00 0.46 0.00 94 1017.1
20260502101533 0 0 0.0 1.6 0.00 0.46 0.00 94 1017.1
20260502101011 0 0 0.0 1.6 0.00 0.46 0.00 93 1017.0
20260502100509 0 0 0.0 1.6 0.00 0.46 0.00 94 1017.0
20260502091010 1 0 0.0 1.6 0.00 0.46 0.00 93 1016.9
20260502090512 1 0 0.0 1.6 0.00 0.46 0.00 93 1016.8
20260502071531 2 0 0.0 0.0 0.00 0.46 0.00 93 1016.6
20260502071013 2 0 0.0 0.0 0.00 0.46 0.00 93 1016.6
20260502070515 2 0 0.0 0.0 0.00 0.46 0.00 93 1016.6
20260502070047 2 0 0.0 0.0 0.00 0.46 0.00 93 1016.7
20260502065514 2 0 0.0 0.0 0.00 0.46 0.00 93 1016.8
20260502065013 2 0 0.0 0.0 0.00 0.46 0.00 93 1016.9
20260502064527 2 0 0.0 0.0 0.00 0.46 0.00 93 1016.8
20260502064009 2 0 0.0 0.0 0.00 0.46 0.00 93 1017.0
20260502063518 2 0 0.0 0.0 0.00 0.46 0.00 93 1017.0
20260502063033 2 0 0.0 0.0 0.00 0.46 0.00 93 1017.0
20260502062511 2 0 0.0 0.0 0.00 0.46 0.00 93 1016.9
20260502062013 2 0 0.0 0.0 0.00 0.46 0.00 93 1017.0
20260502061531 2 0 0.0 0.0 0.00 0.46 0.00 93 1016.9
20260502061011 2 0 0.0 0.0 0.00 0.46 0.00 93 1017.0
20260502060509 2 0 0.0 0.0 0.00 0.46 0.00 93 1017.1
20260502060037 2 0 0.0 0.0 0.00 0.46 0.00 93 1017.1
20260502055512 2 0 0.0 0.0 0.00 0.46 0.00 92 1017.1
20260502055017 2 0 0.0 0.0 0.00 0.46 0.00 93 1017.1
20260502054539 2 0 0.0 0.0 0.00 0.46 0.00 93 1017.2
20260502054012 2 0 0.0 0.0 0.00 0.46 0.00 93 1017.3
20260502053512 2 0 0.0 0.0 0.00 0.46 0.00 93 1017.3
20260502053027 2 0 0.0 0.0 0.00 0.46 0.00 93 1017.2
20260502052518 2 0 0.0 0.0 0.00 0.46 0.00 92 1017.3
20260502052013 2 0 0.0 0.0 0.00 0.46 0.00 92 1017.2
20260502051531 3 0 0.0 0.0 0.00 0.46 0.00 92 1017.2
20260502051017 3 0 0.0 0.0 0.00 0.46 0.00 92 1017.1
20260502050509 3 0 0.0 0.0 0.00 0.46 0.00 92 1017.2
20260502050030 3 0 0.0 0.0 0.00 0.46 0.00 92 1017.2
20260502045510 3 0 0.0 0.0 0.00 0.46 0.00 92 1017.3
20260502045014 3 0 0.0 0.0 0.00 0.46 0.00 92 1017.2
20260502044528 3 0 0.0 0.0 0.00 0.46 0.00 92 1017.2
20260502044009 3 0 0.0 1.6 0.00 0.46 0.00 92 1017.1
20260502043513 3 0 0.0 1.6 0.00 0.46 0.00 92 1017.2
20260502043028 3 0 0.0 1.6 0.00 0.46 0.00 92 1017.0
20260502042510 3 0 0.0 1.6 0.00 0.46 0.00 92 1017.2
20260502042009 3 0 0.0 0.0 0.00 0.46 0.00 92 1017.2
20260502041552 3 0 0.0 0.0 0.00 0.46 0.00 92 1017.2
20260502041011 3 0 0.0 0.0 0.00 0.46 0.00 92 1017.2
20260502040513 3 0 0.0 0.0 0.00 0.46 0.00 91 1017.1
20260502040045 3 0 0.0 0.0 0.00 0.46 0.00 91 1017.1
20260502035510 3 0 0.0 0.0 0.00 0.46 0.46 91 1017.1
20260502035012 3 0 0.0 0.0 0.00 0.46 0.46 91 1017.0
20260502034528 3 0 0.0 1.6 0.00 0.46 0.46 91 1017.0
20260502034014 3 0 0.0 1.6 0.00 0.46 0.46 91 1017.0
20260502033514 3 0 0.0 0.0 0.00 0.46 0.46 91 1017.0
20260502033032 3 0 0.0 0.0 0.00 0.46 0.46 91 1017.1